602  
ASUS45 KGGW 291615  
RWRGGW  
HOURLY REGIONAL WEATHER ROUNDUP FOR NORTHEAST MONTANA  
NATIONAL WEATHER SERVICE GLASGOW MONTANA  
1000 AM MDT MON MAY 29 2017  
 
NOTE: "FAIR" INDICATES FEW OR NO CLOUDS BELOW 12,000 FEET WITH NO  
SIGNIFICANT WEATHER AND/OR S TO VISISBILITY.  
 
NORTHEAST MONTANA  
 
 
CITY SKY/WX TMP DP RH WIND PRES REMARKS
 
GLASGOW SUNNY 59 36 42 NW10G20 30.21F  
PLENTYWOOD N/A 56 34 43 NW13G23 N/A  
WOLF POINT MOSUNNY 62 34 35 N18G25 30.19  
JORDAN N/A 61 32 33 NW10G20 30.22F  
WINNETT N/A 63 33 32 E2 N/A  
SIDNEY PTSUNNY 58 38 47 NW20 30.15F  
GLENDIVE MOSUNNY 58 35 42 NW16G23 30.18F  
MALTA N/A 62 38 40 N1 N/A  
SCOBEY N/A 55 33 43 NW17G24 30.15  
OPHEIM N/A 50 32 50 N14 30.08R  
 
FORT PECK REPORTS  
 
 
CITY SKY/WX TMP DP RH WIND PRES REMARKS
 
FORT PECK N/A 60 37 42 NW12G20 N/A  
THE PINES N/A 58 32 37 NE1 N/A  
 
SOUTHEAST MONTANA  
 
 
CITY SKY/WX TMP DP RH WIND PRES REMARKS
 
BILLINGS MOSUNNY 59 36 42 SW6 30.25F  
MILES CITY SUNNY 61 32 33 NW15G25 30.21S  
BAKER MOSUNNY 56 37 49 NW17G25 30.18F  
LIVINGSTON SUNNY 58 45 62 CALM 30.26F  
 
CENTRAL MONTANA  
 
 
CITY SKY/WX TMP DP RH WIND PRES REMARKS
 
HAVRE SUNNY 62 34 35 E5 30.23F  
LEWISTOWN SUNNY 59 40 49 W3 30.25S  
GREAT FALLS SUNNY 61 47 59 VRB3 30.23S  
CUT BANK SUNNY 60 37 42 S10 30.22F  
HELENA SUNNY 61 45 55 NE5 30.24F  
BUTTE SUNNY 60 40 47 CALM 30.28F  
BOZEMAN SUNNY 61 46 57 CALM 30.27F  
 
WESTERN MONTANA  
 
 
CITY SKY/WX TMP DP RH WIND PRES REMARKS
 
MISSOULA SUNNY 63 45 51 CALM 30.20F  
KALISPELL NOT AVBL  
 
NORTH DAKOTA  
 
 
CITY SKY/WX TMP DP RH WIND PRES REMARKS
 
WILLISTON PTSUNNY 61 41 47 NW20G25 30.13F  
DICKINSON PTSUNNY 55 35 47 NW23G29 30.09F  
MINOT CLOUDY 57 40 52 NW21G35 30.01F  
BISMARCK PTSUNNY 60 41 49 NW23G32 30.03F  
 
SOUTHERN SASKATCHEWAN  
 
 
CITY SKY/WX TMP DP RH WIND PRES REMARKS
 
REGINA MOSUNNY 57 37 47 N22G29 30.13F  
MOOSE JAW MOSUNNY 57 37 47 N18G25 30.17F  
ESTEVAN PTSUNNY 55 41 58 NW22G29 30.07F  
SWIFT CURRENT SUNNY 57 32 38 N14G20 30.21F  
 
 
 
CLICK HERE TO GO TO PREVIOUS BULLETINS.

The Nexlab MT Page Main Text Page